Time,TemperatureF,DewpointF,PressureIn,WindDirection,WindDirectionDegrees,WindSpeedMPH,WindSpeedGustMPH,Humidity,HourlyPrecipIn,Conditions,Clouds,dailyrainin,SoftwareType,DateUTC
2017-05-23 00:05:00,51.7,50.9,29.97,ESE,111,0.0,0.0,97,0.00,,,0.00,WeatherTracker,2017-05-23 04:05:00,
2017-05-23 00:10:00,51.7,50.9,29.97,ESE,111,0.0,0.0,97,0.00,,,0.00,WeatherTracker,2017-05-23 04:10:00,
2017-05-23 00:15:00,51.7,50.9,29.97,ESE,112,0.0,0.0,97,0.00,,,0.00,WeatherTracker,2017-05-23 04:15:00,
2017-05-23 00:25:00,51.7,50.9,29.97,ESE,117,0.0,0.0,97,0.00,,,0.00,WeatherTracker,2017-05-23 04:25:00,
2017-05-23 00:30:00,51.7,50.9,29.97,ESE,117,0.0,0.0,97,0.00,,,0.00,WeatherTracker,2017-05-23 04:30:00,
2017-05-23 00:35:00,51.7,50.9,29.97,ESE,119,1.0,0.0,97,0.00,,,0.00,WeatherTracker,2017-05-23 04:35:00,
2017-05-23 00:40:00,51.7,50.9,29.97,ESE,121,0.0,0.0,97,0.00,,,0.00,WeatherTracker,2017-05-23 04:40:00,
2017-05-23 00:45:00,51.7,51.2,29.97,ESE,118,0.0,0.0,98,0.00,,,0.00,WeatherTracker,2017-05-23 04:45:00,
2017-05-23 00:55:00,51.7,51.2,29.96,ESE,121,0.0,0.0,98,0.00,,,0.00,WeatherTracker,2017-05-23 04:55:00,
2017-05-23 01:00:00,51.7,51.2,29.96,ESE,121,1.0,0.0,98,0.00,,,0.00,WeatherTracker,2017-05-23 05:00:00,
2017-05-23 01:10:00,51.7,51.2,29.96,ESE,123,0.0,0.0,98,0.00,,,0.00,WeatherTracker,2017-05-23 05:10:00,
2017-05-23 01:15:00,51.7,51.2,29.95,SE,124,0.0,0.0,98,0.00,,,0.00,WeatherTracker,2017-05-23 05:15:00,
2017-05-23 01:20:00,51.7,51.2,29.95,ESE,123,0.0,0.0,98,0.00,,,0.00,WeatherTracker,2017-05-23 05:20:00,
2017-05-23 01:30:00,51.7,51.2,29.95,SE,125,0.0,0.0,98,0.00,,,0.00,WeatherTracker,2017-05-23 05:30:00,
2017-05-23 01:40:00,51.7,51.2,29.94,SE,126,2.0,0.0,98,0.00,,,0.00,WeatherTracker,2017-05-23 05:40:00,
2017-05-23 01:45:00,51.7,51.2,29.94,ESE,108,3.0,0.0,98,0.00,,,0.00,WeatherTracker,2017-05-23 05:45:00,
2017-05-23 01:50:00,51.7,51.2,29.94,ESE,111,2.0,0.0,98,0.00,,,0.00,WeatherTracker,2017-05-23 05:50:00,
2017-05-23 01:55:00,51.7,51.2,29.94,ESE,109,1.0,0.0,98,0.00,,,0.00,WeatherTracker,2017-05-23 05:55:00,
2017-05-23 02:00:00,51.7,51.2,29.93,ESE,114,2.0,0.0,98,0.00,,,0.00,WeatherTracker,2017-05-23 06:00:00,
2017-05-23 02:10:00,51.7,51.2,29.93,ESE,121,1.0,0.0,98,0.00,,,0.00,WeatherTracker,2017-05-23 06:10:00,
2017-05-23 02:20:00,51.7,51.2,29.93,SE,128,2.0,0.0,98,0.00,,,0.00,WeatherTracker,2017-05-23 06:20:00,
2017-05-23 02:25:00,51.7,51.2,29.94,ESE,120,0.0,0.0,98,0.00,,,0.00,WeatherTracker,2017-05-23 06:25:00,
2017-05-23 02:35:00,51.7,51.2,29.94,ESE,117,0.0,0.0,98,0.00,,,0.00,WeatherTracker,2017-05-23 06:35:00,
2017-05-23 02:45:00,51.8,51.3,29.94,ESE,118,0.0,0.0,98,0.00,,,0.00,WeatherTracker,2017-05-23 06:45:00,
2017-05-23 02:50:00,51.8,51.3,29.94,ESE,118,0.0,0.0,98,0.00,,,0.00,WeatherTracker,2017-05-23 06:50:00,
2017-05-23 02:55:00,51.7,51.2,29.94,ESE,119,0.0,0.0,98,0.00,,,0.00,WeatherTracker,2017-05-23 06:55:00,
2017-05-23 03:05:00,51.8,51.3,29.94,North,5,0.0,0.0,98,0.00,,,0.00,WeatherTracker,2017-05-23 07:05:00,
2017-05-23 03:10:00,51.8,51.3,29.94,NNE,13,1.0,0.0,98,0.00,,,0.00,WeatherTracker,2017-05-23 07:10:00,
2017-05-23 03:20:00,51.8,51.3,29.94,East,79,0.0,0.0,98,0.00,,,0.00,WeatherTracker,2017-05-23 07:20:00,
2017-05-23 03:25:00,51.8,51.3,29.94,East,80,0.0,0.0,98,0.00,,,0.00,WeatherTracker,2017-05-23 07:25:00,
2017-05-23 03:35:00,51.8,51.3,29.94,East,81,0.0,0.0,98,0.00,,,0.00,WeatherTracker,2017-05-23 07:35:00,
2017-05-23 03:45:00,51.8,51.3,29.94,East,82,1.0,0.0,98,0.00,,,0.00,WeatherTracker,2017-05-23 07:45:00,
2017-05-23 03:50:00,51.7,51.2,29.94,East,84,0.0,0.0,98,0.00,,,0.00,WeatherTracker,2017-05-23 07:50:00,
2017-05-23 04:00:00,51.7,51.2,29.94,East,81,0.0,0.0,98,0.00,,,0.00,WeatherTracker,2017-05-23 08:00:00,
2017-05-23 04:10:00,51.7,51.2,29.93,East,81,0.0,0.0,98,0.00,,,0.00,WeatherTracker,2017-05-23 08:10:00,
2017-05-23 04:15:00,51.7,51.2,29.93,East,81,0.0,0.0,98,0.00,,,0.00,WeatherTracker,2017-05-23 08:15:00,
2017-05-23 04:20:00,51.7,51.2,29.93,East,81,0.0,0.0,98,0.00,,,0.00,WeatherTracker,2017-05-23 08:20:00,
2017-05-23 04:30:00,51.7,51.2,29.93,East,81,0.0,0.0,98,0.00,,,0.00,WeatherTracker,2017-05-23 08:30:00,
2017-05-23 04:35:00,51.7,51.2,29.93,East,82,0.0,0.0,98,0.00,,,0.00,WeatherTracker,2017-05-23 08:35:00,
2017-05-23 04:40:00,51.6,51.1,29.93,East,82,0.0,0.0,98,0.00,,,0.00,WeatherTracker,2017-05-23 08:40:00,
2017-05-23 04:50:00,51.5,51.0,29.93,East,82,0.0,0.0,98,0.00,,,0.00,WeatherTracker,2017-05-23 08:50:00,
2017-05-23 04:55:00,51.4,50.9,29.93,East,82,0.0,0.0,98,0.00,,,0.00,WeatherTracker,2017-05-23 08:55:00,
2017-05-23 05:05:00,51.3,50.8,29.93,East,82,0.0,0.0,98,0.00,,,0.00,WeatherTracker,2017-05-23 09:05:00,
2017-05-23 05:10:00,51.3,50.8,29.93,East,82,0.0,0.0,98,0.00,,,0.00,WeatherTracker,2017-05-23 09:10:00,
2017-05-23 05:20:00,51.2,50.7,29.93,East,83,0.0,0.0,98,0.00,,,0.00,WeatherTracker,2017-05-23 09:20:00,
2017-05-23 05:25:00,51.1,50.6,29.93,East,81,0.0,0.0,98,0.00,,,0.00,WeatherTracker,2017-05-23 09:25:00,
2017-05-23 05:35:00,51.1,50.6,29.93,East,84,0.0,0.0,98,0.00,,,0.00,WeatherTracker,2017-05-23 09:35:00,
2017-05-23 05:40:00,51.1,50.6,29.94,East,88,2.0,0.0,98,0.00,,,0.00,WeatherTracker,2017-05-23 09:40:00,
2017-05-23 05:50:00,51.0,50.5,29.94,East,90,0.0,0.0,98,0.00,,,0.00,WeatherTracker,2017-05-23 09:50:00,
2017-05-23 05:55:00,51.0,50.5,29.94,East,89,0.0,0.0,98,0.00,,,0.00,WeatherTracker,2017-05-23 09:55:00,
2017-05-23 06:00:00,51.0,50.5,29.94,East,89,0.0,0.0,98,0.00,,,0.00,WeatherTracker,2017-05-23 10:00:00,
2017-05-23 06:10:00,51.1,50.6,29.94,ENE,67,0.0,0.0,98,0.00,,,0.00,WeatherTracker,2017-05-23 10:10:00,
2017-05-23 06:15:00,51.1,50.6,29.94,ENE,71,0.0,0.0,98,0.00,,,0.00,WeatherTracker,2017-05-23 10:15:00,
2017-05-23 06:25:00,51.2,50.7,29.95,ENE,71,0.0,0.0,98,0.00,,,0.00,WeatherTracker,2017-05-23 10:25:00,
2017-05-23 06:30:00,51.3,50.8,29.95,North,5,0.0,0.0,98,0.00,,,0.00,WeatherTracker,2017-05-23 10:30:00,
2017-05-23 06:35:00,51.4,50.9,29.95,North,5,0.0,0.0,98,0.00,,,0.00,WeatherTracker,2017-05-23 10:35:00,
2017-05-23 06:40:00,51.5,51.0,29.95,North,5,0.0,0.0,98,0.00,,,0.00,WeatherTracker,2017-05-23 10:40:00,
2017-05-23 06:50:00,51.7,51.2,29.95,North,5,0.0,0.0,98,0.00,,,0.00,WeatherTracker,2017-05-23 10:50:00,
2017-05-23 07:00:00,51.9,51.4,29.95,ENE,75,1.0,0.0,98,0.00,,,0.00,WeatherTracker,2017-05-23 11:00:00,
2017-05-23 07:05:00,51.9,51.4,29.95,ENE,64,0.0,0.0,98,0.00,,,0.00,WeatherTracker,2017-05-23 11:05:00,
2017-05-23 07:15:00,52.0,51.5,29.94,ENE,78,0.0,0.0,98,0.00,,,0.00,WeatherTracker,2017-05-23 11:15:00,
2017-05-23 07:30:00,52.6,52.1,29.95,ESE,119,1.0,0.0,98,0.00,,,0.00,WeatherTracker,2017-05-23 11:30:00,
2017-05-23 07:40:00,52.6,52.1,29.95,East,84,2.0,0.0,98,0.00,,,0.00,WeatherTracker,2017-05-23 11:40:00,
2017-05-23 07:45:00,52.8,52.3,29.94,East,93,3.0,0.0,98,0.00,,,0.00,WeatherTracker,2017-05-23 11:45:00,
2017-05-23 07:50:00,53.0,52.4,29.95,East,98,2.0,0.0,98,0.00,,,0.00,WeatherTracker,2017-05-23 11:50:00,
2017-05-23 07:55:00,53.5,52.9,29.95,East,97,0.0,0.0,98,0.00,,,0.00,WeatherTracker,2017-05-23 11:55:00,
2017-05-23 08:05:00,54.2,53.4,29.94,East,85,0.0,0.0,97,0.00,,,0.00,WeatherTracker,2017-05-23 12:05:00,
2017-05-23 08:10:00,54.3,53.2,29.94,East,97,0.0,0.0,96,0.00,,,0.00,WeatherTracker,2017-05-23 12:10:00,
2017-05-23 08:15:00,54.8,53.7,29.94,East,94,0.0,0.0,96,0.00,,,0.00,WeatherTracker,2017-05-23 12:15:00,
2017-05-23 08:20:00,55.2,53.8,29.95,East,80,0.0,0.0,95,0.00,,,0.00,WeatherTracker,2017-05-23 12:20:00,
2017-05-23 08:30:00,55.2,53.2,29.95,East,80,0.0,0.0,93,0.00,,,0.00,WeatherTracker,2017-05-23 12:30:00,
2017-05-23 08:35:00,55.4,53.4,29.95,SE,128,0.0,0.0,93,0.00,,,0.00,WeatherTracker,2017-05-23 12:35:00,
2017-05-23 08:55:00,56.5,53.9,29.95,SE,128,1.0,0.0,91,0.00,,,0.00,WeatherTracker,2017-05-23 12:55:00,
2017-05-23 09:00:00,56.7,54.1,29.94,SE,128,0.0,0.0,91,0.00,,,0.00,WeatherTracker,2017-05-23 13:00:00,
2017-05-23 09:10:00,57.5,54.6,29.94,SE,128,2.0,0.0,90,0.00,,,0.00,WeatherTracker,2017-05-23 13:10:00,
2017-05-23 09:15:00,57.8,54.3,29.94,SE,128,0.0,0.0,88,0.00,,,0.00,WeatherTracker,2017-05-23 13:15:00,
2017-05-23 09:25:00,58.4,54.9,29.94,NNE,18,0.0,0.0,88,0.00,,,0.00,WeatherTracker,2017-05-23 13:25:00,
2017-05-23 09:35:00,58.6,53.5,29.94,ENE,69,1.0,0.0,83,0.00,,,0.00,WeatherTracker,2017-05-23 13:35:00,
2017-05-23 09:40:00,58.7,53.9,29.94,NNE,23,0.0,0.0,84,0.00,,,0.00,WeatherTracker,2017-05-23 13:40:00,
2017-05-23 09:45:00,59.3,53.8,29.94,SSE,159,4.0,0.0,82,0.00,,,0.00,WeatherTracker,2017-05-23 13:45:00,
2017-05-23 09:55:00,60.5,53.6,29.94,East,99,1.0,0.0,78,0.00,,,0.00,WeatherTracker,2017-05-23 13:55:00,
2017-05-23 10:05:00,61.5,53.1,29.94,East,90,1.0,0.0,74,0.00,,,0.00,WeatherTracker,2017-05-23 14:05:00,
2017-05-23 10:15:00,62.1,52.6,29.93,SE,140,3.0,0.0,71,0.00,,,0.00,WeatherTracker,2017-05-23 14:15:00,
2017-05-23 10:20:00,62.2,51.9,29.93,ESE,122,2.0,0.0,69,0.00,,,0.00,WeatherTracker,2017-05-23 14:20:00,